Content
SEND FEEDBACK

Daily
Averages
Monthly
Summary
China

WUHAN, CHINA


Home > Asia > China
Elevation: 75 feet     Latitude: 30 37N     Longitude: 114 08E

WEATHER
 
SELECT A DAY
Number of Records: 138,252;   Date Range: 1/29/00 - 8/10/14
 
SHARE

PRINT THIS DATA

[ ← Previous Day ]
WEATHER ALMANAC - JULY 18, 2013
[ Next Day → ]
[ °C ]   °F
Weather ElementAverageHighLow
Temperature85 °F93 °F (2:00 pm)77 °F (1:00 am)
Dewpoint74.6 °F78 °F (2:00 am)71.6 °F (5:00 pm)
Humidity71 %89 % (1:00 am)53 % (2:00 pm)
Barometer29.62 in29.65 in (8:00 am)29.56 in (4:00 pm)
Wind Speed7.2 mph11.2 mph (4:00 pm)
Wind Gust20.1 mph (1:00 pm)
Weather ElementAverage
Visibility6 mi
Wind DirectionSSE (141.3 °)

Weather ElementTotal
Precipitation---
Cooling Degree Days20 (Base 65)
Growing Degree Days35 (Base 50)
Averaged from 30 records on July 18, 2013
WEATHER CONDITIONS BREAKOUT
WIND DIRECTION BREAKOUT
WEATHER BY HOUR - JULY 18, 2013
[ °C ]   °F
Local TimeTemperatureDewpointHumidityBarometerVisibilityWind DirectionWind SpeedGust SpeedPrecipitationEventsConditions
1:00 AM77.0 °F73.4 °F89 %29.62 in3.1 miEast (100°)8.9 mphMist
2:00 AM81.0 °F78.0 °F88 %29.61 in9.0 miSSE (160°)4.5 mphClear
2:00 AM78.8 °F75.2 °F89 %29.62 in2.5 miEast (100°)6.7 mphMist
3:00 AM78.8 °F75.2 °F89 %29.62 in2.5 miEast (100°)6.7 mphMist
4:00 AM78.8 °F75.2 °F89 %29.62 in2.5 miEast (100°)6.7 mphMist
5:00 AM81.0 °F78.0 °F89 %29.60 in9.0 miSE (140°)4.5 mphOvercast
5:00 AM78.8 °F75.2 °F89 %29.62 in1.2 miEast (100°)4.5 mphMist
6:00 AM78.8 °F75.2 °F89 %29.62 in1.2 miESE (110°)6.7 mphMist
7:00 AM80.6 °F75.2 °F84 %29.62 in1.6 miSE (130°)6.7 mphPartly Cloudy
8:00 AM86.0 °F77.0 °F67 %29.63 in9.0 miSouth (180°)8.9 mphClear
8:00 AM84.2 °F75.2 °F74 %29.65 in1.6 miSE (130°)8.9 mphHaze
9:00 AM86.0 °F75.2 °F70 %29.65 in6.2 miSE (140°)8.9 mphPartly Cloudy
10:00 AM87.8 °F75.2 °F66 %29.65 inSE (140°)8.9 mphClear
11:00 AM91.0 °F76.0 °F54 %29.63 in12.0 miSouth (180°)8.9 mphScattered Clouds
11:00 AM89.6 °F75.2 °F62 %29.65 inSouth (180°)6.7 mphClear
12:00 PM91.4 °F73.4 °F55 %29.62 in6.2 miSSE (150°)8.9 mphScattered Clouds
1:00 PM91.4 °F73.4 °F55 %29.62 in6.2 miSSE (160°)8.9 mph20.1 mphPartly Cloudy
2:00 PM93.0 °F78.0 °F53 %29.59 in12.0 miSSE (160°)6.7 mphScattered Clouds
2:00 PM91.4 °F73.4 °F55 %29.59 in6.2 miSouth (170°)6.7 mphScattered Clouds
3:00 PM89.6 °F73.4 °F59 %29.59 in6.2 miESE (120°)8.9 mphRainLight Rain Showers
4:00 PM91.4 °F73.4 °F55 %29.56 in6.2 miSSE (160°)11.2 mphPartly Cloudy
5:00 PM87.8 °F71.6 °F58 %29.59 in6.2 miSouth (170°)8.9 mphScattered Clouds
6:00 PM86.0 °F71.6 °F62 %29.59 in6.2 miSouth (180°)8.9 mphPartly Cloudy
7:00 PM86.0 °F71.6 °F62 %29.62 in6.2 miSSW (200°)6.7 mphPartly Cloudy
8:00 PM84.0 °F76.0 °F71 %29.61 in11.0 miSouth (180°)6.7 mphMostly Cloudy
8:00 PM86.0 °F71.6 °F62 %29.62 in6.2 miSouth (180°)6.7 mphPartly Cloudy
9:00 PM84.2 °F71.6 °F66 %29.62 in6.2 miSouth (180°)6.7 mphPartly Cloudy
10:00 PM84.2 °F73.4 °F70 %29.65 inVariable2.2 mphClear
11:00 PM82.0 °F77.0 °F81 %29.64 in9.0 miESE (110°)4.5 mphMostly Cloudy
11:00 PM82.4 °F75.2 °F79 %29.65 inSE (130°)6.7 mphClear
Hourly data recorded from ZHHH, located miles away from Wuhan, China







STORIES FROM OUR PARTNERS